Theta_e
358 358 360 359 358 359 360 360 358 358 358 357 356 357 358 357 356 356 356 355 356 357 357 358 358 359 359 359 360 360 359 359 359 358 359 359 358 359 360 359 359 359 359 360 359 359 359 359 360 359 358 358 356 354 355 355 355 352 352 354 354 355 355 355 357 359 357 355 354 355 352 347 347 347 345 345 347 349 348 345 344 346 345 345 347
358 358 358 358 358 358 358 359 358 358 357 355 355 355 356 356 356 356 356 356 356 356 356 358 359 359 359 359 360 360 359 358 359 359 359 359 357 357 358 359 359 360 360 360 361 360 360 359 359 358 356 356 357 356 356 356 354 352 352 353 353 353 354 354 356 358 357 354 353 352 347 345 346 345 345 347 348 349 349 346 343 344 345 347 348
357 358 357 357 357 357 357 357 357 357 356 356 355 355 355 356 356 356 356 357 357 356 356 357 358 359 358 358 358 358 357 357 358 358 359 359 358 357 357 359 360 360 358 358 359 360 359 358 358 357 356 356 357 356 356 356 353 351 351 351 353 354 353 353 355 357 356 352 350 347 345 346 347 347 348 347 347 347 347 344 343 343 345 347 348
356 357 356 355 355 356 355 356 357 356 356 356 355 355 355 355 355 355 355 355 356 357 356 356 357 357 357 357 357 356 356 357 357 358 359 360 360 359 358 360 360 360 359 358 359 359 358 358 358 357 357 356 356 355 355 354 352 351 351 351 352 354 353 352 352 353 351 349 347 346 347 349 349 349 349 346 344 345 345 345 345 345 345 347 347
354 354 355 354 354 354 355 356 356 355 356 357 355 354 356 356 355 355 355 355 356 356 356 356 356 357 356 357 357 356 356 357 358 359 359 359 360 360 359 360 360 359 359 359 358 357 357 356 356 356 355 354 353 353 353 352 352 351 350 349 349 349 350 349 349 348 348 348 349 349 350 351 351 349 347 345 346 347 346 346 346 346 347 349 350
353 353 354 354 353 353 354 354 354 354 355 355 355 355 355 356 356 355 355 355 355 356 355 355 356 356 356 356 357 356 356 357 358 359 359 358 358 359 359 360 359 359 359 358 357 356 355 353 352 352 352 351 350 351 351 351 351 349 347 348 348 348 348 347 347 349 350 351 352 353 352 351 351 349 346 346 348 347 347 348 349 350 352 354 354
353 352 353 353 352 353 353 353 353 353 353 353 353 355 354 354 355 355 355 355 354 355 355 355 355 356 355 356 356 357 358 358 359 359 359 358 358 358 359 359 359 358 358 357 356 356 354 352 351 351 351 351 350 349 349 350 350 348 348 348 348 348 349 349 351 351 351 350 351 353 352 351 351 350 348 348 348 347 351 355 356 355 355 356 355
353 353 352 352 352 352 352 352 352 352 351 351 350 351 353 352 353 353 354 355 354 354 354 355 355 355 356 356 356 358 359 359 359 359 359 359 359 359 358 358 358 357 356 356 355 354 354 351 350 349 349 349 350 349 349 348 348 347 347 346 346 348 349 350 350 347 345 349 353 354 354 353 353 351 350 350 350 351 355 358 358 357 355 354 355
352 353 352 352 351 352 352 351 351 350 350 350 348 348 349 350 350 351 352 354 354 353 353 354 354 355 357 358 357 357 358 358 359 359 360 359 359 359 358 357 357 356 355 354 353 352 351 349 348 348 347 347 348 349 348 347 346 346 346 346 345 346 348 347 346 344 346 352 355 355 355 356 354 353 353 353 354 356 358 357 356 357 356 355 356
354 353 352 353 352 351 352 351 351 350 350 351 348 347 348 348 349 351 351 351 351 351 351 352 352 353 355 357 358 357 356 356 357 358 359 360 359 358 358 356 355 355 353 353 352 352 351 350 349 349 348 348 347 347 347 349 348 347 347 346 345 345 344 344 344 345 349 353 355 355 357 357 355 354 353 354 356 357 357 357 357 357 357 357 356
357 357 353 354 354 352 351 351 350 351 352 352 349 348 348 348 349 352 352 351 349 349 350 349 350 350 351 353 355 356 356 355 354 355 356 356 356 356 355 353 353 353 353 352 352 352 351 350 350 349 348 349 348 347 347 349 349 349 347 346 346 347 346 345 346 348 349 350 350 352 353 354 353 351 352 355 358 358 357 357 357 357 357 357 356
358 360 357 356 357 355 353 352 352 353 355 355 354 354 353 352 352 352 353 353 351 349 349 349 350 350 350 351 352 353 353 353 352 351 351 351 351 353 353 353 353 352 351 350 349 350 349 349 350 349 349 349 348 347 346 347 348 349 348 348 349 349 348 350 352 354 355 355 354 354 353 352 351 350 353 357 358 357 357 356 357 357 357 357 356
358 361 360 358 359 360 358 357 356 356 357 357 357 358 360 361 360 356 354 354 354 351 350 350 351 351 350 349 348 348 348 350 350 350 350 349 350 352 353 354 352 350 350 349 348 347 348 349 350 350 350 350 348 348 348 347 347 348 349 351 353 351 353 356 359 360 360 358 357 357 356 356 355 354 354 356 356 356 357 356 356 356 357 357 357
357 359 359 358 359 360 360 360 359 359 358 356 356 357 359 360 360 360 358 357 356 355 353 352 352 352 352 350 348 347 346 348 349 349 349 349 350 351 353 353 352 351 350 350 348 348 350 352 352 352 351 351 350 349 349 349 350 351 352 355 357 357 357 359 359 358 356 354 355 356 356 357 358 357 356 356 356 356 356 355 356 356 356 356 356
355 354 355 357 359 360 360 361 361 360 360 358 357 357 358 354 354 359 361 358 357 357 356 355 355 355 354 352 350 349 349 348 349 349 349 349 350 351 352 352 352 351 351 351 351 350 353 354 354 354 353 353 352 352 352 352 353 354 356 359 360 359 358 357 356 356 355 355 356 356 356 357 358 358 357 357 357 356 355 355 356 355 355 354 354
352 351 351 355 359 359 358 359 359 359 359 358 357 357 357 354 354 358 360 358 358 358 358 357 358 357 356 354 352 350 350 349 350 350 350 350 350 351 351 351 351 351 353 355 354 354 354 354 354 354 354 353 353 353 353 353 354 355 356 357 357 357 357 358 357 357 356 356 356 357 357 356 356 356 356 356 356 355 354 354 354 353 353 353 354
351 352 351 352 355 355 356 355 355 355 355 355 356 356 356 355 356 357 357 356 357 358 357 357 358 357 357 356 354 352 350 350 350 351 351 351 351 351 351 352 353 353 355 356 356 356 355 355 354 353 353 353 353 353 353 354 354 354 354 354 354 355 356 357 356 356 355 355 355 355 354 353 352 353 354 354 355 354 353 354 353 353 353 354 355
349 351 350 350 351 352 351 351 351 352 353 354 356 356 355 354 354 354 355 355 355 355 356 356 355 355 355 354 353 352 351 350 349 350 351 351 352 352 352 352 353 354 355 355 355 355 355 355 354 353 352 352 351 351 352 352 353 353 353 353 352 352 353 355 354 353 352 352 352 351 351 351 352 352 353 353 353 353 354 353 352 352 353 353 354
346 348 347 348 349 349 348 348 348 348 349 350 352 352 351 351 352 353 353 353 353 352 352 352 351 352 351 350 351 349 348 348 348 348 350 350 351 351 351 351 352 353 354 355 355 355 355 354 353 352 351 350 349 348 349 350 350 351 350 350 350 351 352 352 349 347 346 347 349 349 350 351 351 351 351 351 352 353 352 350 350 352 354 353 353
343 344 345 346 347 347 346 346 346 346 346 346 346 346 345 345 348 350 349 349 349 348 347 347 347 347 347 347 347 346 345 345 344 344 346 346 347 348 349 350 352 353 353 353 353 354 354 352 350 349 347 344 342 342 343 344 344 344 344 345 347 348 347 345 344 344 346 348 349 349 350 351 350 350 349 349 350 349 345 342 345 348 350 352 353
338 339 341 343 344 344 344 343 344 344 344 344 344 344 342 342 343 345 345 346 347 346 345 344 344 343 343 342 341 339 339 338 336 335 338 339 341 345 347 348 350 351 349 349 351 353 351 348 346 342 338 335 334 334 335 336 336 336 337 338 340 341 341 342 345 347 348 349 348 348 348 348 348 349 347 346 346 343 337 337 342 345 347 350 352
335 335 336 337 338 339 340 340 341 341 341 342 343 343 343 343 344 345 346 345 345 343 342 341 339 337 335 333 332 330 331 331 330 330 332 334 336 339 341 341 344 346 345 346 347 345 342 338 335 332 330 329 328 330 332 331 329 330 330 332 335 339 340 343 346 347 347 347 346 344 342 340 340 342 341 339 337 334 333 337 342 342 341 343 345
332 331 332 333 334 334 334 335 338 338 337 338 339 340 341 342 343 344 344 343 343 341 340 338 336 335 333 331 328 327 328 329 329 328 329 330 331 333 334 336 338 340 340 339 338 335 333 331 328 324 324 325 324 328 332 331 328 328 330 331 334 336 338 341 342 340 339 340 341 339 335 331 331 332 332 331 329 330 333 337 337 336 336 338 337
328 329 329 329 329 329 328 327 330 334 335 336 336 337 338 338 338 339 340 341 341 340 339 338 338 337 337 334 328 327 330 332 331 331 331 331 331 330 331 333 335 336 335 333 331 331 330 329 326 323 321 321 321 325 330 332 330 329 330 332 332 333 337 339 335 332 333 335 336 333 328 323 324 327 328 328 328 330 332 332 331 330 330 329 325
328 330 330 328 327 327 327 325 323 324 326 329 330 329 330 333 335 336 337 337 338 336 335 337 339 339 339 336 330 329 332 333 333 333 333 332 331 329 329 331 331 332 331 328 326 325 323 321 321 321 320 320 320 322 326 330 331 329 329 332 331 330 334 335 331 330 333 333 329 326 323 323 326 328 327 326 328 330 329 328 326 325 324 322 320
327 328 329 330 330 331 333 331 327 322 324 327 329 328 329 332 334 334 333 332 333 333 331 332 335 338 339 338 333 332 333 333 332 332 333 332 331 329 329 329 329 329 327 323 319 317 316 313 314 319 322 322 324 325 325 327 329 329 330 331 329 327 329 331 330 330 330 326 323 323 325 326 326 325 325 326 328 328 325 324 325 324 325 325 325
326 327 326 327 330 330 332 334 332 330 330 332 333 333 334 333 332 333 331 329 330 331 330 330 332 334 337 337 335 333 332 330 328 328 329 328 328 327 327 327 326 325 322 318 315 313 313 312 313 321 327 327 326 327 327 327 330 329 328 327 327 327 328 329 328 327 324 322 322 324 326 326 324 324 325 327 327 325 324 324 325 326 326 327 326
325 326 325 326 328 328 328 330 331 330 330 332 332 332 332 331 330 330 329 328 329 329 329 329 330 331 332 332 330 328 325 323 322 321 320 320 320 320 320 319 318 318 316 314 314 314 316 319 321 326 329 327 325 326 326 327 329 327 325 324 325 326 327 326 325 324 323 323 324 325 325 324 323 324 325 325 324 324 324 325 326 326 325 325 325
325 326 326 325 325 327 327 327 329 329 329 329 329 327 327 327 327 327 325 325 326 326 327 327 328 329 329 327 325 323 322 320 319 317 317 316 316 316 316 315 316 316 315 315 314 314 318 325 327 328 328 326 325 325 325 325 325 324 323 324 324 324 324 324 323 323 322 323 324 324 323 322 322 323 323 323 323 324 324 324 324 324 324 325 325
327 327 326 325 326 328 328 328 328 328 327 327 326 325 323 323 324 324 323 322 322 322 323 324 324 325 326 325 323 322 320 319 318 317 317 317 317 316 317 317 317 316 315 315 313 313 318 325 327 327 327 326 325 325 325 324 324 324 323 323 322 322 322 321 321 322 322 322 323 321 320 320 321 321 321 322 323 324 323 323 323 323 324 324 323
328 328 327 327 328 329 328 329 329 327 326 326 326 325 324 324 323 323 322 322 321 320 319 319 320 322 323 323 322 321 320 319 318 318 318 318 317 317 317 317 317 317 315 314 315 316 321 325 326 325 326 325 324 324 324 323 323 323 323 322 321 321 320 320 320 321 321 320 320 319 319 320 320 320 321 322 322 321 321 321 322 322 322 321 321
327 328 327 327 328 328 327 328 329 328 327 327 326 325 324 324 323 322 322 322 322 320 318 316 316 317 318 319 318 318 318 318 317 317 317 317 317 317 317 317 317 316 314 315 317 319 322 325 325 324 324 323 323 323 322 322 322 321 321 320 320 319 319 318 319 319 319 318 318 318 319 320 319 320 320 320 319 319 319 319 319 319 319 319 319
327 326 324 324 327 328 327 326 327 327 328 328 327 327 326 325 324 323 323 322 322 321 319 317 315 315 316 316 316 316 317 317 316 316 317 316 316 317 316 316 316 314 314 316 319 320 322 324 324 323 322 321 321 321 320 320 320 320 319 319 318 318 317 317 318 318 317 317 317 318 319 319 319 319 319 318 317 317 317 317 317 317 317 317 316
325 325 324 323 326 326 325 325 326 326 326 326 326 325 326 327 327 325 324 323 322 322 321 319 318 317 318 318 317 317 317 317 316 316 316 315 315 316 315 315 315 315 316 319 321 321 322 323 322 321 320 319 319 319 319 318 318 317 317 317 317 317 316 316 317 316 316 316 317 318 318 317 317 317 317 316 316 316 316 315 315 315 315 314 314
326 326 326 325 325 326 325 325 325 325 324 324 324 323 324 326 326 326 325 325 324 323 322 320 319 319 318 318 318 318 316 316 316 316 316 315 315 315 315 315 317 319 320 321 322 323 323 322 320 318 318 318 317 317 317 317 316 316 316 316 316 315 315 316 316 315 315 316 317 316 316 315 314 314 314 315 314 313 313 312 312 312 312 313 313
323 325 325 325 325 325 325 324 325 324 324 323 322 322 323 323 323 324 325 325 324 324 324 322 320 320 319 319 318 317 316 316 316 317 317 317 317 316 316 316 318 320 320 320 321 322 321 319 318 317 317 317 316 316 316 315 315 315 315 315 315 314 314 315 314 314 314 314 314 314 313 312 312 312 312 312 311 310 310 309 309 309 310 310 310
320 320 321 323 324 324 324 323 323 323 323 323 322 322 322 322 322 322 322 322 323 324 324 323 321 320 320 319 319 317 316 317 317 317 317 317 317 317 317 317 319 320 319 319 319 319 318 317 317 317 316 316 315 315 315 315 315 314 314 313 313 314 313 313 313 313 313 312 311 310 310 310 310 309 309 308 308 307 307 306 307 307 308 308 308
321 317 318 322 323 322 322 321 320 319 319 319 319 321 321 321 321 321 321 320 321 322 324 324 323 322 321 320 319 318 318 318 318 316 315 315 316 316 316 317 319 319 318 317 317 317 316 316 315 315 315 315 314 314 313 313 313 313 313 312 312 312 311 311 311 311 311 309 308 308 307 307 307 306 306 305 305 305 305 305 305 305 305 305 306
321 319 319 322 322 321 320 320 320 319 318 318 318 319 320 320 319 320 320 320 319 320 322 323 323 323 322 321 320 319 319 319 319 317 315 315 315 315 315 315 316 316 315 315 315 316 315 314 314 313 313 313 313 312 312 312 311 311 311 311 310 309 309 309 309 309 308 307 306 305 305 304 304 304 304 303 303 303 303 302 302 302 302 303 304
322 320 320 321 321 319 319 320 320 319 319 319 319 319 319 319 319 319 318 319 319 319 319 321 322 322 322 322 320 319 318 318 317 315 314 314 314 314 314 314 314 314 314 314 314 314 313 313 312 312 311 311 311 311 310 310 310 310 309 309 308 308 307 307 306 306 306 305 304 304 303 303 302 302 302 302 301 301 301 300 300 301 302 302 303
321 321 320 319 319 317 316 317 318 318 318 318 318 318 318 317 317 317 317 317 317 317 318 319 320 319 318 318 317 315 314 314 313 313 313 313 313 313 313 313 312 312 312 312 312 312 312 311 310 310 310 309 309 309 309 309 308 308 308 308 307 306 306 305 305 304 304 303 303 302 301 301 301 300 300 300 300 300 299 299 299 300 301 301 301
321 321 320 319 316 314 313 315 316 317 317 317 318 318 317 316 315 316 316 316 316 316 317 318 317 316 315 314 313 312 311 311 311 311 311 312 312 312 312 311 310 310 310 310 309 309 309 309 308 308 308 307 307 307 307 307 307 306 306 306 305 305 305 304 304 303 303 302 301 301 300 300 299 299 299 298 299 298 298 298 299 299 300 300 300
320 320 320 319 316 314 314 315 316 316 317 317 317 317 316 315 314 314 315 315 315 315 316 316 315 315 314 313 311 311 311 310 310 310 310 310 310 310 309 309 309 308 308 307 307 307 308 307 307 306 306 306 306 306 305 305 305 305 305 304 304 303 303 303 303 302 301 301 300 300 299 299 299 298 298 298 298 297 297 297 298 298 298 299 299
320 320 320 319 317 316 316 316 315 315 316 317 317 316 316 315 315 314 314 314 314 314 314 314 315 315 314 312 311 310 310 309 309 309 309 309 309 308 308 308 307 307 307 306 306 306 306 306 305 305 305 305 305 304 304 304 304 303 303 303 303 302 302 302 301 300 300 300 299 299 298 298 298 297 297 297 297 297 296 296 296 297 298 299 299
321 320 320 319 318 317 317 316 315 315 316 317 316 315 315 314 314 314 313 313 313 313 313 313 313 313 312 311 310 309 308 308 308 308 308 308 308 307 307 307 307 306 306 305 305 304 304 304 304 304 303 303 303 303 303 302 302 302 302 302 302 301 301 300 299 299 299 298 298 297 297 297 296 296 296 296 296 296 295 296 296 297 298 298 298
320 319 319 319 319 318 318 317 316 316 316 315 315 314 314 313 313 313 313 312 312 312 312 311 310 310 309 309 308 308 307 307 307 307 307 307 306 306 306 306 305 305 305 304 304 303 303 303 302 302 302 302 301 301 301 301 301 301 301 301 300 300 300 299 298 298 298 297 297 296 296 295 295 294 295 295 295 295 295 296 296 297 297 298 298
319 318 318 317 317 316 316 316 315 315 315 314 314 313 313 313 313 313 313 312 312 311 310 310 309 308 308 308 307 307 307 306 306 306 305 305 305 305 305 304 304 303 303 303 303 302 302 301 301 301 301 301 300 300 300 300 300 300 300 300 300 299 299 298 298 297 297 297 296 296 295 294 294 293 293 294 294 295 295 296 296 297 297 298 298
318 317 317 315 314 314 314 314 314 314 314 313 313 313 312 312 312 311 311 311 311 310 309 309 308 307 307 306 306 306 306 305 305 304 304 304 304 304 303 303 302 302 302 301 301 301 301 300 300 300 300 299 299 299 299 299 299 299 299 299 299 299 298 298 297 296 296 296 295 295 294 294 293 293 293 293 294 294 295 295 296 297 297 298 298
317 317 316 314 313 313 313 313 313 313 313 312 312 312 311 311 310 310 309 309 309 309 308 307 307 306 306 305 305 305 305 304 303 303 303 303 303 302 302 301 301 301 300 300 300 300 300 300 299 299 299 298 298 298 298 298 298 298 298 298 298 297 297 296 296 295 295 295 294 294 294 293 293 292 293 293 294 294 295 295 296 296 297 298 298
316 315 314 313 312 311 311 311 312 312 311 311 311 310 310 309 309 309 309 308 308 307 307 306 306 305 305 305 305 304 304 303 303 303 302 302 302 301 301 300 300 300 300 299 299 299 299 299 298 298 298 298 298 298 298 298 298 298 298 297 297 296 296 295 295 295 294 294 294 294 293 292 292 292 292 293 294 294 294 295 296 296 297 298 298
314 313 312 312 311 311 310 311 311 311 310 310 309 309 308 308 308 308 307 307 306 306 306 306 305 305 305 304 304 304 303 303 302 302 301 301 301 300 300 300 300 299 299 299 299 299 298 298 298 298 297 297 297 297 297 297 297 297 297 297 296 295 295 295 295 294 294 294 293 293 292 292 291 291 292 293 293 294 294 295 296 297 297 297 297
Wind_Speed
25 26 24 21 20 21 20 19 18 16 16 17 16 16 15 14 14 13 13 14 15 14 14 14 14 14 14 14 13 12 12 13 11 11 11 11 11 10 8 8 9 10 8 6 6 7 7 6 6 8 8 7 7 7 5 6 7 5 5 7 7 6 6 6 7 8 11 12 12 14 15 15 14 14 15 14 13 12 13 16 16 15 16 14 13
26 26 24 22 21 21 20 20 19 17 16 16 15 16 16 14 14 14 13 14 14 15 15 15 13 13 13 14 13 13 13 12 12 13 12 11 10 10 10 10 10 11 10 8 7 7 7 6 7 8 7 7 7 7 7 8 7 4 3 6 7 6 5 6 7 8 11 13 14 15 16 15 15 16 17 18 17 15 15 17 16 14 14 13 13
26 26 25 23 22 22 21 19 19 18 17 16 15 16 16 15 15 15 15 14 14 13 13 15 15 13 13 13 13 14 14 12 13 13 12 11 10 10 11 11 11 11 9 8 7 7 7 7 8 8 8 8 8 7 8 9 8 6 6 5 5 6 5 5 7 8 10 12 14 15 16 16 17 18 19 19 19 17 18 19 19 18 17 14 13
26 26 24 22 21 21 21 20 19 18 17 16 16 16 16 15 15 15 15 15 15 14 13 14 15 14 13 14 14 15 14 13 13 13 12 12 11 10 10 10 10 9 9 9 8 8 8 8 8 9 9 9 8 7 7 8 8 8 8 6 6 6 5 4 6 7 9 12 15 17 18 18 18 18 19 20 21 21 21 21 22 20 16 12 12
27 26 25 23 22 20 21 21 19 19 18 17 16 15 14 15 15 14 14 15 15 16 15 15 15 15 13 13 13 14 14 14 14 14 13 12 12 12 11 11 10 9 9 9 9 9 9 10 10 9 8 8 8 8 8 9 9 8 8 8 7 7 6 6 8 10 12 14 16 17 16 17 18 18 19 22 23 23 22 21 19 15 12 13 17
26 27 25 24 24 22 21 21 20 19 19 18 17 16 15 15 15 14 14 15 14 15 15 15 14 15 15 14 13 13 13 13 14 14 13 12 12 12 12 11 10 10 10 9 10 10 10 10 10 10 10 10 10 10 10 10 10 8 8 8 8 8 9 10 10 10 10 12 14 15 16 17 18 19 20 21 22 20 20 19 16 14 15 19 23
26 29 27 24 24 23 22 21 20 20 19 17 17 17 17 17 16 16 16 14 13 14 15 15 12 13 16 15 13 12 12 12 12 12 13 13 12 12 12 12 11 12 12 12 11 12 12 12 13 12 13 14 14 13 11 10 9 8 8 7 7 8 8 8 8 9 10 13 14 16 17 18 18 20 20 19 19 18 17 17 17 19 22 24 25
25 28 28 25 24 23 22 21 19 19 18 17 17 17 18 19 18 18 18 16 15 14 14 15 13 12 14 15 14 13 13 14 14 13 13 14 13 12 12 12 13 13 13 13 13 13 13 14 15 15 16 17 17 17 14 12 11 11 11 11 11 11 10 10 10 12 13 14 15 17 18 18 19 20 19 18 17 16 16 17 19 22 25 27 25
26 28 27 26 25 23 22 21 18 17 16 16 18 16 15 17 18 19 20 19 17 15 14 15 15 13 14 15 15 12 12 14 15 14 14 14 14 13 12 12 12 13 13 13 13 12 12 13 13 13 12 13 14 16 16 16 14 13 13 13 13 13 13 14 14 14 13 14 16 17 17 18 19 18 16 16 16 15 16 19 21 22 24 27 26
18 27 28 25 25 25 23 21 18 16 13 12 17 17 13 11 13 18 23 21 17 15 15 15 15 15 15 16 16 15 13 13 15 15 15 15 15 14 13 12 11 11 11 11 11 11 11 12 12 12 12 11 10 12 14 16 17 15 13 13 14 14 15 15 15 14 13 14 15 16 15 16 17 17 16 17 16 15 17 19 20 21 22 24 26
9 20 26 22 21 24 24 22 20 17 12 8 12 14 12 9 7 9 15 18 17 15 14 14 15 17 17 17 17 16 15 15 14 14 15 15 16 16 14 12 10 9 8 8 8 10 11 12 13 13 12 10 8 7 8 9 13 15 15 15 15 14 14 14 13 13 14 15 16 16 16 17 19 19 19 17 15 15 17 18 18 19 20 18 20
10 14 21 20 19 21 22 22 20 16 10 8 8 7 6 5 5 5 6 8 11 11 10 10 10 10 13 16 16 15 15 16 16 16 16 17 18 18 15 12 9 8 7 7 8 10 12 12 12 11 8 7 7 7 6 7 9 12 14 15 15 12 11 12 13 14 14 15 16 18 18 19 21 20 17 15 15 17 18 17 17 17 17 16 17
19 16 20 22 19 19 20 20 19 16 13 12 11 8 5 3 3 5 5 5 6 7 7 7 4 3 5 10 12 11 12 14 16 17 17 17 18 19 17 14 11 9 9 10 11 11 12 11 10 8 6 6 7 7 8 8 9 10 11 13 13 12 11 12 12 12 12 13 15 17 18 18 20 19 17 16 18 18 17 18 17 15 15 17 18
24 19 20 22 21 18 18 19 20 19 18 17 16 14 11 8 5 6 7 7 6 5 6 6 6 3 3 6 8 8 8 9 10 12 14 13 14 16 16 14 11 10 9 9 10 10 11 10 8 6 6 7 8 9 10 10 9 9 9 8 8 9 9 8 7 7 8 9 11 13 14 14 15 16 15 15 15 16 16 17 17 16 16 17 18
24 21 20 21 19 17 15 17 19 20 18 18 17 16 16 18 16 11 9 10 10 9 8 7 8 8 8 7 7 8 8 7 7 9 10 11 11 11 12 12 11 10 8 7 8 9 10 9 9 8 8 8 8 9 10 10 9 8 7 5 4 5 5 4 3 4 7 9 10 11 12 12 12 13 13 14 16 17 17 17 17 16 17 17 18
14 16 15 13 14 13 13 15 17 18 18 16 15 14 15 18 17 13 12 13 13 12 10 9 9 9 9 9 9 9 9 9 9 9 9 9 9 8 9 9 9 8 6 6 7 8 9 8 8 9 9 9 9 8 8 8 8 8 7 6 5 5 5 5 5 7 9 10 11 11 12 13 14 14 15 16 17 18 18 17 16 15 16 17 16
5 3 4 5 7 8 9 11 12 13 15 15 14 13 13 12 11 11 13 14 14 13 12 11 11 9 8 9 9 9 9 9 9 9 9 8 7 7 7 8 7 7 6 6 7 8 8 7 7 8 8 8 9 9 8 8 8 8 8 8 8 7 7 8 10 11 12 13 13 14 15 15 14 13 13 14 15 15 14 14 13 13 14 14 12
7 6 6 7 7 5 5 7 9 9 10 12 13 13 12 10 8 8 11 13 13 12 12 11 11 10 10 9 8 8 8 8 7 7 8 8 7 6 6 6 7 7 7 6 7 7 7 6 6 7 7 8 8 9 9 9 9 9 9 10 10 9 8 10 12 13 14 14 14 13 13 11 11 11 11 11 12 11 10 11 12 12 12 12 12
10 9 7 6 7 6 4 4 6 7 6 7 9 11 11 11 10 11 12 13 11 9 8 9 9 9 8 8 7 6 5 4 5 5 5 6 6 6 6 7 7 7 7 7 7 6 6 5 5 5 6 7 8 8 8 8 8 8 9 9 9 8 8 11 13 14 13 11 10 10 10 10 11 11 10 10 9 9 10 12 12 12 12 13 15
15 14 11 7 6 6 6 5 5 5 4 5 6 7 7 8 11 12 11 12 11 8 7 8 9 9 8 6 5 3 1 1 1 2 3 4 4 5 5 6 6 5 4 5 5 4 3 2 2 4 6 7 7 7 6 6 6 6 6 5 6 7 8 10 10 9 9 9 10 11 10 9 10 10 10 9 8 9 12 12 11 11 13 15 16
20 20 18 14 12 12 11 10 10 10 10 11 10 9 8 9 11 10 9 10 11 9 8 9 9 7 6 4 3 3 3 3 4 3 1 1 4 5 4 4 5 5 3 2 3 3 2 1 3 5 7 8 7 6 5 4 3 3 3 4 5 6 6 6 7 6 8 10 11 11 10 10 10 10 10 10 10 12 14 12 10 11 12 14 16
21 22 23 21 21 20 17 15 17 17 15 14 13 12 11 11 11 11 11 12 11 11 11 11 10 9 9 8 9 9 10 10 11 11 9 9 9 7 5 3 4 6 7 7 7 6 6 6 7 7 8 7 6 5 4 4 4 3 3 4 4 4 4 6 7 8 8 9 10 9 10 12 12 11 11 12 13 14 14 12 11 12 11 11 12
21 20 20 21 22 22 20 18 18 20 19 17 15 14 13 12 12 13 13 12 11 12 13 12 12 12 11 11 12 14 16 16 17 16 15 15 14 11 9 8 9 11 14 13 11 9 8 7 6 7 6 6 5 4 4 4 5 4 4 4 4 6 6 6 6 7 7 7 7 9 11 13 14 15 16 16 16 15 13 12 12 11 10 10 10
19 17 16 17 18 17 18 17 16 17 18 17 16 14 14 13 12 10 11 12 11 10 11 11 12 13 12 11 12 15 17 17 16 16 15 13 12 11 10 10 11 11 12 11 9 7 6 5 4 4 4 4 4 3 3 3 3 3 4 4 6 8 6 4 4 6 6 6 8 10 13 15 15 17 17 16 15 15 13 12 12 12 12 13 14
14 14 13 13 13 11 12 13 14 13 13 13 13 12 11 12 11 9 11 13 12 10 8 6 10 13 14 13 14 15 14 13 12 12 11 10 9 9 9 9 9 8 8 8 7 6 6 5 4 4 3 3 4 3 3 3 2 3 4 5 7 8 5 3 4 5 5 7 10 12 14 14 14 15 15 14 14 14 15 15 15 15 15 15 14
12 10 10 10 9 7 6 7 9 10 9 7 8 8 8 10 10 10 11 12 11 12 12 9 7 8 11 14 14 13 12 10 10 9 8 7 7 6 6 6 6 6 6 7 8 7 7 6 5 5 4 5 5 5 7 7 4 3 6 6 6 7 6 5 7 8 9 10 12 12 12 12 13 14 13 13 14 16 17 17 16 16 16 16 15
10 8 8 8 8 8 7 5 7 8 8 8 9 9 9 8 9 11 12 11 9 10 11 11 12 13 12 14 15 14 11 10 10 9 7 6 5 4 4 4 5 5 6 8 9 8 8 7 6 5 5 7 8 9 11 9 3 2 7 9 9 11 11 10 11 11 12 13 12 11 12 12 13 14 13 13 15 17 17 16 16 16 17 16 16
10 8 6 6 6 8 12 12 13 14 14 14 15 15 12 10 10 12 13 12 11 11 11 11 14 16 17 16 15 14 12 10 9 8 7 6 6 5 4 5 6 6 7 7 7 6 7 6 5 6 7 9 10 12 14 13 9 9 13 15 14 13 12 11 12 14 15 14 13 12 13 13 14 16 15 15 16 17 16 16 16 16 16 16 16
9 9 8 6 5 7 10 13 16 18 19 18 18 17 15 12 12 12 12 12 11 10 10 11 13 13 14 14 12 11 11 10 9 8 8 7 6 5 5 6 6 7 8 8 7 6 6 6 8 11 10 9 11 15 17 17 15 14 17 19 17 15 14 15 17 17 16 15 14 14 15 15 16 18 17 16 16 16 15 16 16 16 16 15 15
8 10 9 8 8 9 11 12 12 15 19 19 18 17 15 13 11 10 10 9 9 8 6 7 7 7 8 9 9 8 8 8 8 7 7 6 6 5 5 6 6 7 7 7 7 7 6 7 11 13 12 11 13 15 15 15 14 14 15 17 18 18 18 18 18 16 15 14 15 16 16 15 17 18 18 17 17 16 16 16 15 15 15 15 16
8 8 8 9 10 10 12 13 13 14 15 15 15 15 13 10 8 8 7 7 6 6 5 4 3 3 3 5 6 6 6 5 5 5 5 5 5 4 5 5 6 7 7 7 7 7 7 8 11 13 12 13 14 14 14 14 14 14 13 14 16 18 19 18 17 16 16 16 16 16 15 15 16 17 16 17 17 17 16 16 16 16 17 17 18
8 9 8 9 9 9 9 11 12 13 13 13 13 12 11 10 9 8 7 7 7 6 4 4 3 2 2 3 3 4 4 4 5 5 6 6 5 5 5 5 6 7 6 6 8 7 6 8 11 11 12 13 13 13 13 13 14 14 14 15 16 17 18 17 16 16 17 17 16 14 13 14 15 15 15 16 17 17 17 18 18 19 18 18 17
11 11 9 9 9 8 7 8 10 11 12 12 11 9 8 9 9 9 8 7 6 5 5 5 5 4 5 5 5 6 6 7 7 6 6 6 6 7 7 6 6 6 5 6 8 7 6 8 10 9 10 12 12 12 13 13 13 13 14 15 15 15 16 15 14 15 16 15 13 12 13 15 16 15 14 14 15 16 17 18 18 18 18 18 18
12 11 8 8 8 8 7 7 8 9 10 11 10 8 7 8 8 7 7 7 6 5 5 5 6 6 6 5 5 6 7 7 6 6 6 7 7 7 6 5 4 3 3 6 9 7 6 8 10 10 11 12 11 11 11 12 12 12 12 12 12 13 14 13 13 14 15 14 13 13 14 15 15 16 16 16 16 17 17 18 19 20 20 20 21
9 9 8 7 7 7 8 8 8 8 8 8 8 8 8 7 7 8 8 8 8 8 8 8 8 7 5 4 4 6 7 6 6 6 7 8 8 8 8 6 4 3 5 10 11 8 6 6 9 10 11 11 11 10 9 10 11 11 11 11 12 13 13 12 11 12 13 13 13 13 13 14 15 16 16 17 18 19 20 21 22 22 22 22 23
7 9 9 7 5 6 7 7 7 7 7 6 6 6 6 6 5 5 6 6 8 10 10 10 9 8 6 5 4 6 6 6 7 8 9 9 9 10 10 8 6 6 11 13 10 6 6 7 8 9 10 11 11 10 9 9 10 10 10 11 11 12 12 11 10 11 12 13 14 14 14 14 15 15 15 16 18 19 20 21 22 22 22 23 22
7 10 10 8 6 7 6 4 4 4 4 4 5 5 5 4 4 4 4 4 3 6 10 12 11 10 9 7 6 7 6 5 6 9 10 10 9 10 11 9 8 10 12 12 11 12 12 10 10 10 10 11 11 11 10 9 9 9 10 11 12 12 11 10 10 11 11 12 15 15 15 16 16 16 16 17 18 19 20 21 21 21 21 21 21
10 12 11 10 10 10 7 4 2 2 2 3 4 5 5 4 3 3 3 2 3 5 9 11 12 11 10 8 8 7 4 2 4 6 7 7 8 10 12 13 12 10 8 9 10 12 13 12 11 11 11 11 11 10 10 10 9 8 9 10 12 14 14 12 11 11 11 13 15 15 16 17 17 17 18 18 19 19 19 19 20 21 21 21 20
11 13 13 11 10 10 8 5 3 3 3 3 4 4 4 4 3 3 3 2 2 4 7 10 11 10 10 9 9 7 3 1 1 3 4 4 4 5 10 12 11 8 7 7 7 8 10 11 11 11 10 10 10 10 9 10 10 10 10 10 12 14 16 14 13 13 13 14 15 15 16 17 17 17 17 18 18 19 19 19 21 21 22 22 21
9 10 11 10 9 9 9 7 6 5 4 4 5 5 5 5 5 4 3 2 1 1 3 8 12 13 12 12 11 7 4 2 2 2 3 3 2 2 5 8 7 6 7 7 6 6 7 8 9 10 9 9 10 10 9 9 10 10 10 11 12 13 14 14 13 13 13 14 15 15 15 16 16 15 16 17 17 18 19 20 21 21 20 21 21
10 9 9 10 10 10 10 9 8 6 4 4 5 6 4 3 3 2 1 1 1 3 3 9 14 14 12 11 9 6 4 3 2 1 1 2 1 2 3 4 5 5 6 7 6 5 6 6 7 8 9 9 9 10 9 10 10 10 10 10 11 12 12 11 11 12 12 13 14 15 14 15 15 16 17 17 18 18 19 19 19 19 19 19 20
13 12 12 13 13 12 11 10 9 7 5 3 4 5 4 3 2 2 1 1 1 1 5 10 11 10 8 6 3 2 1 2 2 2 1 1 1 1 3 6 8 8 8 8 6 5 5 5 5 6 8 9 9 10 10 10 10 10 10 10 10 10 9 9 9 10 11 12 13 13 13 14 16 18 18 18 18 18 18 18 18 18 19 19 19
14 13 13 14 15 13 11 9 9 9 8 7 5 4 3 2 2 2 1 1 1 1 4 7 8 7 5 4 2 3 2 3 4 5 4 4 4 5 7 9 9 9 8 7 7 5 4 4 5 6 6 7 8 9 10 10 9 8 8 9 9 8 7 8 9 10 11 11 11 12 13 15 16 17 17 16 16 17 17 17 17 17 17 18 18
14 13 13 15 16 14 11 9 10 10 9 9 8 7 6 4 3 2 1 1 0 1 3 4 6 6 5 4 4 4 5 6 6 5 4 4 4 5 6 7 7 7 6 6 7 6 4 4 5 6 6 7 7 7 9 9 9 8 8 7 7 6 7 8 9 9 10 11 12 13 14 14 15 16 16 16 16 17 18 17 17 17 17 17 16
11 10 11 14 16 15 13 11 10 11 11 9 9 9 7 5 3 2 2 2 2 2 3 3 5 6 6 5 5 6 6 6 5 4 3 2 1 2 4 5 6 6 5 5 6 6 5 5 6 6 7 8 8 8 8 9 9 8 8 7 6 6 7 7 7 8 10 12 14 14 15 15 17 18 17 16 17 17 17 17 18 17 16 16 16
16 13 11 12 13 15 15 14 13 13 13 12 9 6 5 3 3 4 5 4 3 2 4 4 4 5 5 5 5 5 5 4 4 3 3 2 1 1 3 4 5 5 4 5 5 5 5 6 6 6 6 7 7 7 7 7 7 8 7 7 6 6 7 7 8 10 12 14 15 16 17 18 19 18 16 15 16 16 16 16 16 15 15 15 15
17 14 12 10 8 7 9 11 12 12 12 11 9 6 5 3 1 3 5 6 5 3 3 3 2 2 1 0 1 1 1 1 2 2 1 1 0 1 2 4 4 3 3 4 4 4 4 5 6 6 6 6 7 7 6 6 6 7 7 7 7 8 9 9 10 12 14 15 17 17 18 18 17 16 15 15 15 15 15 15 14 14 14 14 14
15 13 12 10 8 5 3 2 2 5 8 9 8 7 6 4 2 1 3 5 6 5 4 3 3 3 4 4 4 3 2 2 2 1 3 3 2 1 1 2 2 2 3 4 4 4 4 5 6 6 6 6 7 7 6 6 7 8 8 8 8 8 9 10 11 13 14 15 16 17 17 17 17 16 15 14 14 14 15 14 13 13 13 13 14
18 18 17 14 13 12 10 6 4 5 7 8 6 5 5 4 3 3 2 2 3 5 6 5 3 3 4 4 2 2 2 2 3 4 2 1 2 3 3 3 3 4 4 4 4 4 4 4 5 7 7 7 7 7 7 8 9 10 9 9 7 7 9 11 12 13 14 15 16 17 18 18 18 16 14 13 13 13 14 14 13 13 13 14 15
18 18 17 15 13 12 10 8 7 8 8 7 6 6 6 6 6 6 5 4 4 5 4 3 2 3 4 5 5 4 5 7 6 3 3 3 2 1 3 4 5 6 6 6 6 6 6 6 6 7 7 8 8 8 7 7 8 8 7 7 7 9 11 12 12 13 15 16 18 20 21 20 18 16 13 12 12 13 13 12 12 13 14 15 16
15 16 16 14 12 11 11 11 12 10 9 8 8 7 7 7 8 7 6 4 3 2 3 4 5 6 7 7 8 8 6 4 3 3 3 2 2 3 4 6 6 6 6 6 7 7 7 6 5 5 6 6 6 7 8 7 6 6 6 8 10 12 12 11 12 15 17 19 21 22 22 20 17 15 13 12 12 12 12 13 14 14 15 15 16
Wind_Direction
188 190 189 188 189 189 188 189 190 193 191 191 196 194 189 192 196 196 200 201 199 201 204 205 209 208 203 205 209 209 209 209 211 215 221 229 224 224 242 253 252 256 260 260 256 264 279 281 278 286 281 272 281 281 280 316 323 299 268 270 272 277 283 279 268 280 305 322 326 325 328 330 330 334 334 332 335 335 332 335 336 336 336 336 341
188 189 189 191 192 191 192 192 192 194 193 194 199 198 194 194 198 200 199 199 202 204 204 205 210 210 207 210 210 211 215 212 211 217 225 232 231 227 235 243 244 243 245 249 253 260 271 272 273 287 287 272 274 276 280 299 311 301 267 266 275 282 288 292 280 277 300 318 322 321 327 332 329 334 337 331 329 326 321 326 330 330 329 326 332
188 186 188 194 194 189 191 194 195 198 198 198 201 200 201 203 204 203 200 199 202 207 207 206 208 211 211 214 216 217 220 217 215 221 227 232 238 233 233 244 249 245 244 249 253 257 262 263 265 277 285 281 274 270 276 290 297 292 287 288 290 283 278 287 278 273 294 310 314 317 324 326 323 330 336 332 330 327 320 320 322 322 322 321 330
188 186 189 195 192 187 191 194 196 199 198 200 203 203 205 206 205 204 203 203 204 206 207 206 209 213 213 218 220 217 219 219 217 223 228 233 241 239 235 246 254 250 248 253 258 262 262 262 265 273 280 282 282 285 289 292 296 297 294 293 295 287 280 286 284 285 296 300 303 310 315 318 322 329 333 330 329 329 326 325 323 321 320 325 337
187 187 191 195 191 189 192 193 194 197 198 201 203 202 204 203 201 203 206 205 206 208 206 208 215 212 208 220 223 215 219 223 219 223 231 237 241 241 242 251 255 253 253 254 256 263 265 264 265 267 268 268 270 276 282 283 285 296 303 301 302 293 283 291 297 296 296 298 303 311 318 321 324 327 327 328 330 334 337 336 332 328 329 336 342
188 187 191 194 193 193 195 195 195 197 201 204 200 197 201 202 201 205 208 205 207 213 208 209 219 214 206 216 225 221 224 227 223 225 233 241 243 240 242 248 251 254 258 258 256 258 260 258 257 255 253 254 253 252 258 267 275 287 297 298 295 286 280 287 295 296 303 311 314 317 321 321 320 321 327 332 334 339 348 350 347 346 344 342 342
188 187 189 192 195 197 195 196 201 200 201 205 202 199 202 204 203 204 207 208 209 213 210 208 216 214 208 211 220 225 226 226 228 230 234 243 248 244 241 243 248 252 254 255 255 257 259 259 259 256 252 251 249 245 246 250 257 265 269 272 277 278 277 279 287 298 311 317 314 311 313 315 316 319 324 332 336 341 352 357 352 346 342 340 340
188 188 189 192 198 202 196 196 203 202 199 203 208 209 203 201 206 207 206 208 208 210 212 212 213 212 212 214 218 224 227 226 229 232 236 242 247 250 249 245 245 249 253 257 259 260 263 268 271 269 268 266 258 251 247 242 243 247 249 256 265 268 271 276 287 301 308 305 302 303 305 308 313 316 320 331 340 342 348 351 347 342 338 334 336
189 188 190 193 199 203 200 200 202 204 205 203 208 219 214 203 206 209 207 205 206 208 210 212 214 214 217 218 219 223 226 224 225 230 235 239 242 247 252 251 252 254 255 261 268 269 270 278 285 288 294 293 275 264 259 247 243 247 248 254 262 266 273 283 292 299 301 296 296 300 301 303 308 314 321 333 339 337 339 339 337 337 334 329 330
190 190 190 194 200 202 204 204 201 206 218 208 204 218 228 217 206 206 207 205 201 202 207 212 217 218 218 219 217 220 224 226 228 229 231 238 243 244 244 248 258 262 260 264 270 275 277 284 292 298 307 307 288 279 276 258 245 246 254 263 271 275 282 290 293 295 294 290 292 296 298 300 304 309 316 323 325 327 332 334 332 333 333 331 330
203 197 191 193 200 201 204 206 204 210 222 208 198 209 219 217 194 185 199 202 198 199 206 213 217 218 222 224 219 215 217 224 230 230 230 238 244 243 239 240 250 263 272 279 284 286 285 284 288 295 304 303 289 288 298 274 252 252 263 275 281 284 287 289 292 295 293 290 290 292 292 293 298 304 311 317 320 324 327 329 330 332 334 333 326
199 198 189 188 193 196 197 199 201 206 205 183 179 189 197 206 197 173 172 183 187 186 184 192 202 205 212 217 215 213 214 219 226 230 234 237 239 237 233 229 233 243 258 279 296 305 305 297 291 290 292 293 282 278 289 288 273 268 272 277 281 286 291 294 297 299 298 296 295 296 296 296 298 304 311 315 315 317 319 322 328 331 329 325 317
192 194 189 186 183 183 185 188 191 195 194 187 182 172 148 121 161 200 201 179 172 173 167 171 172 146 165 186 196 205 213 220 225 229 232 233 231 229 226 224 225 231 243 261 280 300 311 311 304 291 278 278 280 280 283 288 289 288 285 280 279 284 292 298 299 297 297 299 299 300 303 301 299 301 305 307 309 313 317 321 326 327 322 320 316
193 196 195 190 185 181 180 182 186 193 199 201 197 191 188 189 191 206 212 206 195 189 188 193 199 203 187 176 178 187 201 213 221 227 231 230 226 222 221 221 223 226 237 252 268 284 297 307 309 302 295 293 291 292 295 298 300 300 296 288 284 291 297 298 297 298 303 307 309 312 315 312 306 305 305 304 307 315 320 322 324 324 322 322 320
199 203 201 193 190 190 188 185 186 192 197 197 195 194 200 208 212 213 217 220 217 211 208 206 207 215 221 214 200 196 203 209 212 221 228 228 224 220 219 222 225 230 240 254 263 270 279 290 299 302 305 308 306 303 302 305 304 298 293 287 294 314 316 299 289 299 304 308 311 315 317 315 312 308 304 302 304 311 318 319 320 324 326 326 325
196 205 199 186 185 191 193 192 190 189 188 184 184 190 199 207 210 210 217 225 224 220 218 216 215 215 218 220 218 213 216 220 217 217 220 220 218 217 219 224 229 233 238 246 254 261 270 280 289 297 303 307 309 308 305 306 305 299 298 297 300 314 313 294 290 296 296 296 298 301 306 311 311 307 306 307 309 314 319 319 323 332 331 329 327
100 144 148 145 166 185 197 197 190 183 177 170 170 182 194 199 200 201 209 216 219 221 224 223 224 227 226 224 223 218 220 225 225 222 222 224 223 221 221 221 223 225 229 239 251 261 272 282 289 297 304 307 308 308 306 308 308 307 311 310 308 310 304 292 293 297 297 296 296 299 305 310 313 314 316 319 321 324 330 334 341 345 337 330 326
93 95 99 103 120 150 186 196 186 177 168 161 161 168 172 172 174 188 202 208 211 216 220 218 219 224 224 222 222 221 222 226 232 231 229 233 235 231 227 223 224 229 233 243 255 259 264 278 290 299 307 312 316 316 313 313 312 311 312 312 313 315 303 294 298 301 299 300 301 304 310 317 324 328 329 330 333 340 348 351 350 342 331 326 319
104 105 107 100 106 121 132 151 165 170 164 153 156 160 157 157 171 191 200 198 191 190 195 197 195 196 199 201 207 215 220 226 242 249 237 235 238 235 231 228 228 234 237 236 240 248 258 276 297 313 322 325 327 327 322 317 312 309 307 306 309 309 297 297 307 313 314 320 327 332 337 339 338 340 339 341 351 5 4 357 350 339 328 322 321
98 104 113 118 111 107 100 99 119 144 151 136 135 144 154 174 191 195 191 183 175 165 160 164 164 165 168 177 191 202 189 168 225 257 229 214 202 197 206 205 194 194 209 215 212 220 246 275 319 347 353 351 346 342 335 324 314 309 309 307 305 304 303 310 322 333 347 1 3 358 357 355 354 360 3 4 13 8 356 352 349 338 326 319 321
89 94 100 103 100 98 101 104 101 105 116 118 116 123 142 168 181 178 167 164 166 163 155 148 143 141 148 151 141 121 107 92 71 57 59 155 143 152 167 169 157 149 137 140 166 174 167 82 40 21 16 13 4 359 1 0 354 349 348 336 317 308 316 341 360 7 11 13 7 4 10 14 14 19 21 19 11 354 346 350 355 350 339 327 322
80 85 89 91 88 86 88 95 97 95 96 103 110 121 133 143 146 144 141 140 138 134 132 129 123 116 110 102 97 97 97 89 80 75 74 76 89 106 117 106 110 116 109 105 112 115 95 63 44 32 27 21 9 6 17 25 32 36 16 355 341 330 335 353 2 8 15 14 8 12 22 21 19 16 9 2 357 350 349 356 2 3 360 350 339
76 76 80 83 83 82 79 82 92 95 92 92 99 106 114 122 126 129 131 129 129 130 126 120 119 120 115 106 102 101 99 93 85 80 78 78 81 87 90 89 92 100 101 97 93 86 70 54 46 40 33 22 9 5 19 34 41 39 26 20 14 359 348 350 5 17 19 9 4 11 13 8 4 360 354 353 354 353 356 1 1 358 352 340 331
79 74 73 74 75 79 78 75 82 91 92 92 94 96 101 103 104 114 123 126 131 136 136 143 149 143 135 126 117 109 103 96 90 85 81 79 80 80 81 84 88 92 93 87 77 66 49 35 32 34 33 27 8 349 355 14 22 23 20 16 7 2 4 25 34 20 10 5 6 6 1 357 356 354 352 351 352 353 356 356 351 345 336 326 320
87 79 76 74 70 75 81 80 82 87 92 95 97 99 98 90 81 84 100 108 108 93 87 135 164 161 156 146 127 113 105 101 99 97 90 85 81 76 72 72 72 71 67 57 42 27 14 4 2 9 20 19 8 352 340 337 340 4 3 353 357 6 24 76 56 35 31 25 14 5 3 2 360 354 347 346 351 356 353 344 338 339 340 339 339
98 82 72 77 87 97 105 108 110 109 110 113 108 106 102 92 85 81 82 88 88 69 55 61 94 132 157 153 134 120 116 109 102 98 93 87 78 64 56 56 54 44 29 15 3 352 349 351 357 6 10 6 357 345 331 319 305 347 356 353 8 27 50 81 73 62 51 32 20 16 15 9 358 350 347 351 356 355 350 347 347 351 355 353 352
112 92 64 72 93 92 78 102 139 140 134 130 123 120 121 112 100 92 88 92 92 75 65 64 66 78 108 129 130 129 126 115 105 100 93 83 68 48 32 25 14 358 349 348 346 346 347 348 350 356 358 355 352 350 347 340 317 344 11 28 55 68 75 80 71 58 40 25 22 24 16 4 356 356 356 356 355 352 352 357 358 357 358 356 353
118 105 82 88 97 73 66 89 117 125 127 128 123 121 124 122 110 98 93 96 98 90 84 78 73 82 101 116 125 127 118 105 98 92 82 75 65 49 32 17 7 1 357 351 350 353 350 348 354 360 0 5 16 30 37 44 57 58 47 49 60 66 66 60 47 37 28 23 25 23 12 4 2 2 1 359 357 355 356 359 358 355 357 356 355
119 111 106 110 101 72 75 94 104 107 113 118 114 108 105 104 105 100 88 81 81 83 84 81 78 86 99 106 109 109 100 89 81 72 65 61 54 42 33 27 23 22 15 5 357 351 349 1 15 13 13 26 41 49 54 56 58 56 50 48 47 45 40 34 30 27 23 23 23 17 10 6 1 358 357 358 358 357 357 359 357 354 355 356 0
116 115 115 110 93 81 90 103 109 111 114 114 110 106 101 95 91 88 79 68 57 49 51 65 75 81 89 94 92 84 77 71 62 54 49 43 37 33 30 24 17 13 8 0 354 348 349 5 13 13 21 43 50 47 46 46 44 40 38 39 40 39 35 32 31 27 22 20 16 8 5 4 358 354 353 355 357 359 358 357 356 355 359 5 8
124 126 124 109 94 89 96 105 116 124 122 117 117 116 111 104 94 82 74 63 45 27 15 24 46 56 70 87 88 75 66 55 37 28 21 14 13 16 15 12 5 1 355 348 350 356 1 6 10 15 30 48 52 47 42 39 38 35 33 33 33 30 28 30 29 23 14 8 1 358 1 2 356 352 353 356 358 359 359 360 2 4 7 8 6
150 145 141 124 107 106 111 111 117 127 130 128 128 124 118 120 122 113 101 85 67 54 41 36 43 50 46 53 58 58 50 29 14 4 355 349 341 332 333 334 335 340 337 332 340 352 360 0 4 17 34 43 47 47 45 43 45 44 41 37 31 24 22 22 19 13 8 4 359 359 3 358 349 347 353 357 359 0 1 2 2 1 1 4 7
146 141 144 139 121 120 132 124 115 122 130 133 134 132 130 137 138 130 124 116 102 91 82 75 82 92 81 64 53 50 45 33 22 8 353 343 328 314 308 308 316 320 312 318 332 339 347 355 1 19 42 46 48 52 51 49 48 44 39 36 30 22 20 19 11 3 2 3 3 3 357 348 343 347 357 1 0 358 357 357 358 0 4 8 9
131 130 137 140 128 125 140 136 120 118 122 123 119 113 118 138 148 146 144 144 144 148 147 134 123 112 99 85 69 58 50 38 26 16 7 359 348 335 322 315 320 324 322 333 334 322 321 354 17 41 55 53 51 51 49 46 41 34 29 25 17 9 9 9 4 359 358 356 355 355 356 357 360 5 8 9 6 3 4 6 7 9 9 7 3
132 133 135 133 123 121 125 123 120 124 125 119 108 97 98 119 146 163 172 176 181 187 180 163 152 144 135 125 101 73 58 48 44 38 23 12 7 6 5 11 35 43 4 349 342 327 322 2 35 51 54 49 45 44 44 42 38 33 27 20 12 6 3 359 357 360 2 2 2 5 11 16 17 16 17 18 18 18 16 14 12 9 6 3 359
156 153 146 132 127 138 135 121 120 127 132 131 124 112 100 96 115 150 167 177 191 198 192 178 171 173 176 164 125 95 81 69 57 45 31 19 11 10 15 28 42 22 0 358 6 27 43 45 49 51 51 51 48 46 44 41 38 35 27 17 9 4 3 4 6 6 8 15 22 27 30 29 25 24 25 24 21 18 14 9 6 3 1 359 357
174 166 155 140 139 150 153 149 144 147 160 168 163 151 129 103 98 117 118 104 138 181 187 184 182 188 196 183 143 114 102 86 67 53 42 33 23 17 14 8 356 351 1 22 49 65 64 60 56 52 54 55 53 50 46 42 40 35 26 20 13 8 6 12 18 19 23 31 35 34 33 30 26 23 21 17 12 9 5 3 1 358 356 356 354
177 170 162 151 144 144 148 162 165 150 178 198 192 175 157 132 119 136 135 95 101 152 178 187 193 204 209 188 153 139 133 108 85 71 54 34 23 23 19 7 355 355 19 50 64 63 58 55 51 49 51 53 53 50 42 37 36 30 23 23 23 21 21 24 30 33 35 36 34 31 28 26 21 17 15 13 10 7 4 2 360 356 353 352 350
169 169 168 161 150 144 148 161 164 146 146 159 165 167 171 171 169 171 182 197 185 180 188 190 189 197 200 181 161 160 178 221 88 80 60 25 360 12 19 18 20 31 41 46 51 56 57 53 47 44 44 41 40 41 37 32 31 28 24 22 20 20 23 27 33 38 38 35 31 30 29 27 23 18 16 14 11 7 3 357 354 351 347 345 344
177 175 178 179 177 169 166 167 170 175 185 188 185 189 194 194 188 181 178 179 156 130 177 168 159 157 163 165 166 172 180 172 150 107 65 35 337 301 349 12 33 58 58 50 47 45 46 49 46 41 37 32 29 31 30 25 23 21 20 19 17 16 20 26 32 36 37 32 27 24 24 23 20 16 13 10 4 358 353 349 348 346 345 343 342
204 200 199 200 201 198 191 184 177 178 192 200 192 188 182 167 164 174 191 196 34 42 115 148 149 146 148 154 157 162 159 145 137 138 77 42 14 273 317 5 47 73 68 62 56 39 36 45 42 34 30 26 24 23 22 20 18 14 10 9 8 9 16 25 30 30 27 22 19 19 19 17 12 7 3 359 352 348 346 346 344 342 341 340 340
216 216 213 209 206 202 197 192 186 186 197 197 173 163 158 146 141 147 178 240 281 53 126 142 146 144 142 140 127 80 68 66 41 30 36 33 45 68 54 56 66 67 59 57 58 50 41 40 33 28 27 24 20 19 19 18 16 13 10 6 4 6 11 17 17 15 13 13 14 14 10 4 0 357 353 349 345 343 343 342 339 337 336 335 335
231 229 221 213 209 205 201 200 198 198 203 207 202 198 203 204 195 192 192 225 243 175 139 146 153 150 136 116 73 48 76 100 95 86 85 86 82 71 60 57 63 67 65 61 59 58 53 40 28 23 22 19 17 16 13 11 10 10 8 7 7 9 10 3 357 357 360 2 2 359 356 354 352 349 345 340 337 336 335 333 331 330 329 328 329
244 240 229 222 219 215 215 221 218 210 204 200 194 188 182 168 166 189 227 279 242 157 133 143 156 154 133 105 94 108 121 124 118 107 97 89 76 56 39 34 40 49 51 44 39 39 37 22 10 2 359 358 357 355 355 356 357 357 357 359 1 1 359 358 355 354 353 352 351 350 351 350 345 339 335 329 326 326 326 326 325 324 323 324 326
251 235 219 219 221 222 226 229 220 208 202 193 179 173 174 176 185 212 234 258 254 214 175 144 136 137 132 116 107 118 123 118 112 109 107 106 81 32 20 12 9 12 13 13 16 20 18 10 2 357 355 352 343 333 332 335 336 338 342 348 351 351 352 356 356 351 348 349 350 350 348 343 337 333 329 323 320 320 320 321 321 320 320 322 323
251 246 238 234 229 226 225 218 201 191 190 187 179 174 180 200 239 249 242 244 244 195 167 151 130 122 119 108 101 103 100 94 92 98 101 110 112 358 357 352 353 357 356 350 353 2 8 7 4 2 3 359 347 336 332 327 324 326 333 338 340 340 343 345 345 346 347 346 346 345 342 338 335 334 328 322 319 319 319 320 320 319 318 319 319
245 243 238 228 213 193 184 182 180 182 185 186 187 185 174 158 239 263 234 223 216 193 167 169 183 184 163 111 9 342 353 66 105 97 66 32 339 297 307 318 333 346 345 342 345 351 357 360 356 350 346 340 336 337 340 334 322 319 323 327 327 327 328 332 336 338 339 338 337 338 338 337 337 336 330 324 321 321 321 322 321 318 318 318 318
223 218 221 229 237 236 224 208 207 197 185 178 180 183 177 173 193 232 202 206 220 228 231 230 235 261 284 292 293 290 262 204 200 296 322 320 301 230 246 295 333 348 346 350 356 351 349 354 353 347 340 331 326 330 335 328 316 313 316 318 317 314 318 325 331 333 334 334 335 337 338 339 341 339 332 326 323 322 321 320 317 316 317 317 317
234 234 236 236 232 228 230 246 262 224 191 176 176 185 188 193 214 230 232 234 224 212 208 211 233 275 284 278 253 196 191 241 280 294 302 120 123 115 86 43 23 10 358 357 357 350 344 341 335 331 331 329 329 329 322 307 298 296 298 301 305 314 324 329 332 334 337 338 339 340 341 341 341 338 332 327 323 320 318 316 314 315 316 314 313
237 230 222 214 207 206 208 211 211 206 198 194 203 215 220 225 231 231 226 212 182 169 176 202 242 242 224 210 211 235 266 280 279 253 160 140 131 58 15 1 354 352 350 347 342 336 327 316 309 310 314 317 320 321 311 296 288 286 288 297 315 329 333 333 335 338 341 341 340 341 341 340 338 335 332 327 322 319 318 317 314 313 312 312 314
222 215 213 213 211 206 200 196 196 200 208 218 222 224 227 226 217 203 189 180 183 207 234 242 238 229 225 232 247 260 267 256 208 155 116 74 14 351 338 325 319 323 331 335 339 337 328 316 309 310 315 320 323 325 322 318 310 303 307 319 329 332 333 334 337 338 339 339 339 340 341 340 337 332 327 324 321 318 316 314 312 313 316 317 320